Location: Vancouver
(49.2500°N, 123.1330°W)
Time: 01:20:01
(UTC-07:00)

Iridium 35 - Visible Passes

Search period start: 30 September 2016 00:00
Search period end: 10 October 2016 00:00
Orbit: 776 x 779 km, 86.4° (Epoch: 29 September)

Date Brightness Start Highest point End Pass type
(mag) Time Alt. Az. Time Alt. Az. Time Alt. Az.
30 Sep 7.1 04:07:29 10° SE 04:11:42 25° E 04:15:54 10° NNE visible
30 Sep 5.2 05:47:05 10° SSW 05:52:08 49° W 05:57:11 10° N visible
01 Oct 7.7 03:35:37 10° ESE 03:38:31 15° ENE 03:41:26 10° NE visible
01 Oct 4.9 05:13:17 10° S 05:18:30 83° W 05:23:46 10° N visible
02 Oct 5.5 04:40:47 15° SSE 04:45:01 58° E 04:50:09 10° N visible
02 Oct 6.2 06:22:10 10° WSW 06:26:10 22° WNW 06:30:11 10° NNW visible
03 Oct 6.5 04:08:20 17° SE 04:11:39 34° E 04:16:20 10° NNE visible
03 Oct 5.6 05:48:52 17° SW 05:52:21 36° WNW 05:57:09 10° N visible
04 Oct 7.3 03:35:47 14° ESE 03:38:24 21° ENE 03:42:12 10° NNE visible
04 Oct 5.0 05:16:18 31° SSW 05:18:40 60° W 05:23:51 10° N visible
05 Oct 7.8 03:03:16 10° E 03:05:16 12° ENE 03:07:17 10° NE visible
05 Oct 5.0 04:43:38 48° S 04:45:06 80° E 04:50:21 10° N visible
05 Oct 6.5 06:24:09 12° W 06:26:31 16° WNW 06:29:45 10° NNW visible
06 Oct 5.9 04:10:53 43° ESE 04:11:39 47° E 04:16:39 10° NNE visible
06 Oct 6.0 05:51:24 24° W 05:52:38 26° WNW 05:57:01 10° NNW visible
07 Oct 6.7 03:38:04 28° E 03:38:20 28° E 03:42:44 10° NNE visible
07 Oct 5.3 05:18:34 43° W 05:18:51 44° W 05:23:51 10° N visible
08 Oct 7.5 03:05:12 17° ENE 03:05:12 17° ENE 03:08:24 10° NE visible
08 Oct 5.0 04:45:42 69° NW 04:45:42 69° NW 04:50:28 10° N visible
08 Oct 6.8 06:26:13 12° WNW 06:26:57 12° WNW 06:28:50 10° NW visible
09 Oct 5.7 04:12:46 52° NE 04:12:46 52° NE 04:16:54 10° N visible
09 Oct 6.4 05:53:17 20° WNW 05:53:17 20° WNW 05:56:43 10° NNW visible
